Notices

What's New in latest Release from April 7th, 2021:

- Updated Glossary, including Speed of Maximum Gust, and Total Hourly Precipitation

- Updated national and regional climate services offices contacts and prices information

- Addition of station inventory lists for 1981-2010, 1971-2000, and 1961-1990 Normals.

If you haven't already, please take our survey and provide feedback about our website: https://eccc.sondage-survey.ca/f/LanguageSelection.aspx?s=442ca660-fcf1-47c0-95a9-59707d6fd709

Hourly Data Report for December 01, 2019

SAINT JOHN A
NEW BRUNSWICK
Current Station Operator: NAVCAN

45°18'58.000" N
65°53'24.000" W
108.80 m
8104901
71609
YSJ

Download Data

Hourly Data (December 2019)
Hourly Data Report for December 1, 2019
TIME
LST
Temp Definition
°C
Dew Point Definition
°C
Rel Hum Definition
%
Precip. Amount Definition
mm

Wind Dir Definition
10's deg

Wind Spd Definition
km/h
Visibility Definition
km
Stn Press Definition
kPa
Hmdx Definition


Wind Chill Definition


Weather Definition


00:00 -7.1 -11.8 70   34 22 24.1 99.39   -15 LegendNANA
01:00 -7.4 -12.0 70   33 36 24.1 99.41   -17 LegendNANA
02:00 -8.0 -12.3 72   32 25 24.1 99.48   -16 Clear
03:00 -8.3 -12.4 72   33 26 24.1 99.57   -17 LegendNANA
04:00 -8.9 -12.9 73   33 18 24.1 99.65   -16 LegendNANA
05:00 -9.3 -13.1 74   33 18 24.1 99.71   -17 Clear
06:00 -9.5 -13.6 72   33 23 24.1 99.75   -18 LegendNANA
07:00 -10.0 -13.9 73   33 19 24.1 99.82   -18 LegendNANA
08:00 -10.2 -14.2 73   32 16 24.1 99.87   -17 Mainly Clear
09:00 -9.0 -14.2 66   33 18 24.1 99.99   -16 LegendNANA
10:00 -7.5 -14.0 60   35 23 24.1 100.07   -15 LegendNANA
11:00 -6.0 -13.9 54   34 22 24.1 100.05   -13 Mainly Clear
12:00 -4.5 -14.1 48   36 16 24.1 100.01   -10 LegendNANA
13:00 -3.6 -14.0 45   1 15 24.1 99.98   -9 LegendNANA
14:00 -2.8 -14.1 42   29 18 24.1 100.06   -8 Mainly Clear
15:00 -2.2 -14.1 40   35 9 24.1 100.11   -6 LegendNANA
16:00 -2.8 -13.7 43   32 10 24.1 100.07   -7 LegendNANA
17:00 -5.3 -13.2 54   35 14 24.1 100.07   -11 Mainly Clear
18:00 -8.1 -11.3 78   36 3 24.1 100.15   -10 LegendNANA
19:00 -7.1 -12.1 68   33 6 24.1 100.18   -10 LegendNANA
20:00 -7.6 -11.7 73   36 2 24.1 100.19   -9 Mostly Cloudy
21:00 -7.0 -11.2 73   27 5 24.1 100.26   -10 LegendNANA
22:00 -7.6 -10.3 81   2 4 24.1 100.28   -10 LegendNANA
23:00 -7.2 -11.0 75   5 8 24.1 100.23   -11 Cloudy

Notes on Data Quality.

Legend

  • E = Estimated
  • M = Missing
  • NA = Not Available*
  • [empty] = Indicates an unobserved value
Date modified: